Flag for United Kingdom Past Weather in Newport (Isle of Wight), England, United Kingdom — Yesterday and Last 2 Weeks

Now
71 °F

Mild.


Feels Like: 74 °F
Forecast: 54 / 71 °F
Wind: 5 mph from Southeast

Location: Saint Catherine's Point

Current Time: Aug 30, 2016 at 6:17:34 PM

Latest Report: Aug 30, 2016 at 1:00 PM


Visibility: N/A

Pressure: 30.28 "Hg

Humidity: 71%

Dew Point: 62 °F

Location of Newport (Isle of Wight)Location

Past Weather in Newport (Isle of Wight) — Graph

°F

Newport (Isle of Wight) Temperature Yesterday

Maximum temperature yesterday: 69 °F (at 3:00 PM)
Minimum temperature yesterday: 60 °F (at 7:00 AM)
Average temperature yesterday: 64 °F

High & Low Weather Summary for the Past Weeks

 TemperatureHumidityPressure
High78 °F (Aug 24, 1:00 PM)99% (Aug 18, 10:00 PM)30.29 "Hg (Aug 18, 10:00 PM)
Low57 °F (Aug 16, 6:00 AM)52% (Aug 26, 11:00 AM)29.68 "Hg (Aug 19, 4:00 PM)
Average65 °F82%30.01 "Hg
* Reported Aug 15 1:00 PM — Aug 30 1:00 PM, Newport (Isle of Wight), Weather by CustomWeather, © 2016

Note: Actual official high and low records may vary slightly from our data, if they occured in-between our weather recording intervals... More about our weather records

Advertising

Newport (Isle of Wight) Weather History for the Previous 24 Hours

Scroll right to see more
 ConditionsComfort  
Time TempWeatherWind HumidityBarometerVisibility
1:00 PM
Tue, Aug 30
71 °FMild.5 mph71%30.28 "HgN/A
12:00 PM72 °FMild.6 mph72%30.28 "HgN/A
11:00 AM71 °FMild.6 mph66%30.28 "HgN/A
10:00 AM70 °FMild.3 mph68%30.29 "HgN/A
9:00 AM66 °FMild.1 mph72%30.28 "HgN/A
7:00 AM61 °FCool.6 mph72%30.27 "HgN/A
6:00 AM60 °FCool.8 mph77%30.27 "HgN/A
5:00 AM62 °FCool.13 mph69%30.26 "HgN/A
4:00 AM61 °FCool.14 mph75%30.26 "HgN/A
3:00 AM62 °FCool.13 mph69%30.26 "HgN/A
2:00 AM65 °FMild.13 mph58%30.27 "HgN/A
1:00 AM67 °FMild.10 mph52%30.27 "HgN/A
12:00 AM63 °FMild.9 mph75%30.27 "HgN/A
11:00 PM
Mon, Aug 29
63 °FMild.9 mph87%30.27 "HgN/A
10:00 PM64 °FMild.9 mph87%30.26 "HgN/A
9:00 PM63 °FMild.8 mph87%30.26 "HgN/A
8:00 PM64 °FMild.10 mph85%30.24 "HgN/A
7:00 PM65 °FMild.9 mph84%30.23 "HgN/A
6:00 PM67 °FMild.10 mph83%30.23 "HgN/A
Weather by CustomWeather, © 2016

See weather overviewHow to use our weather pages